RYR68KK LZIB-LIEA

Flight info

Callsign RYR68KK
Flight time 1h 42m
Altitude 36000
Route TOVKA DCT INGID DCT DETSA/N0443F370 DCT KALMO DCT ERTEV DCT TORTU DCT OKROK DCT AJO M194 REVDO
Aircraft B738/M-SDE2E3FGHIRWXY/LB1

Departure

Time 2026-05-08 18:17
Airport M. R. Štefánik Airport (LZIB)

Arrival

Time 2026-05-08 19:59
Airport Alghero-Fertilia Airport (LIEA)
Time Latitude Longitude Altitude Speed Heading
2026-05-08 17:48 48.16974 17.20174 421 ft 0 kts 314°
2026-05-08 18:07 48.16974 17.20175 431 ft 1 kts 314°
2026-05-08 18:07 48.16957 17.20198 418 ft 4 kts 327°
2026-05-08 18:07 48.16933 17.20213 421 ft 4 kts 359°
2026-05-08 18:08 48.16912 17.20205 427 ft 2 kts 44°
2026-05-08 18:08 48.16908 17.20199 427 ft 0 kts 44°
2026-05-08 18:10 48.16915 17.20208 424 ft 3 kts 43°
2026-05-08 18:10 48.16937 17.20237 426 ft 6 kts 41°
2026-05-08 18:10 48.16974 17.20285 421 ft 9 kts 37°
2026-05-08 18:11 48.17021 17.20354 430 ft 10 kts 47°
2026-05-08 18:11 48.17075 17.20440 425 ft 12 kts 45°
2026-05-08 18:11 48.17141 17.20536 430 ft 14 kts 44°
2026-05-08 18:11 48.17148 17.20670 428 ft 14 kts 119°
2026-05-08 18:12 48.17080 17.20783 425 ft 15 kts 133°
2026-05-08 18:12 48.17004 17.20904 430 ft 17 kts 134°
2026-05-08 18:12 48.16918 17.21035 424 ft 19 kts 133°
2026-05-08 18:12 48.16830 17.21180 425 ft 19 kts 134°
2026-05-08 18:13 48.16740 17.21320 430 ft 18 kts 133°
2026-05-08 18:13 48.16653 17.21454 424 ft 18 kts 134°
2026-05-08 18:13 48.16569 17.21586 422 ft 17 kts 133°
2026-05-08 18:13 48.16487 17.21717 430 ft 18 kts 133°
2026-05-08 18:14 48.16398 17.21859 428 ft 19 kts 133°
2026-05-08 18:14 48.16303 17.22004 425 ft 19 kts 137°
2026-05-08 18:14 48.16208 17.22141 420 ft 19 kts 135°
2026-05-08 18:14 48.16119 17.22278 430 ft 18 kts 133°
2026-05-08 18:15 48.16033 17.22415 430 ft 18 kts 132°
2026-05-08 18:15 48.15950 17.22552 430 ft 17 kts 132°
2026-05-08 18:15 48.15866 17.22678 427 ft 17 kts 134°
2026-05-08 18:15 48.15777 17.22815 420 ft 20 kts 134°
2026-05-08 18:16 48.15701 17.22982 424 ft 19 kts 110°
2026-05-08 18:16 48.15703 17.23171 422 ft 19 kts 50°
2026-05-08 18:16 48.15813 17.23122 430 ft 19 kts 314°
2026-05-08 18:16 48.15926 17.22946 429 ft 42 kts 314°
2026-05-08 18:17 48.16293 17.22378 427 ft 108 kts 314°
2026-05-08 18:17 48.16953 17.21358 429 ft 162 kts 311°
2026-05-08 18:17 48.17764 17.20085 973 ft 169 kts 314°
2026-05-08 18:17 48.18573 17.18778 1663 ft 173 kts 314°
2026-05-08 18:18 48.19403 17.17416 2259 ft 184 kts 315°
2026-05-08 18:18 48.20356 17.15960 2584 ft 209 kts 316°
2026-05-08 18:18 48.21438 17.14329 2784 ft 233 kts 316°
2026-05-08 18:18 48.22635 17.12495 3105 ft 256 kts 315°
2026-05-08 18:19 48.23733 17.10379 3866 ft 261 kts 294°
2026-05-08 18:19 48.24058 17.07718 4746 ft 263 kts 268°
2026-05-08 18:19 48.23661 17.05080 5570 ft 265 kts 251°
2026-05-08 18:19 48.22988 17.02464 6393 ft 266 kts 249°
2026-05-08 18:20 48.22294 16.99927 7164 ft 267 kts 248°
2026-05-08 18:20 48.21579 16.97337 7926 ft 270 kts 248°
2026-05-08 18:20 48.20849 16.94692 8691 ft 272 kts 248°
2026-05-08 18:20 48.20136 16.92092 9459 ft 274 kts 248°
2026-05-08 18:21 48.19400 16.89399 10193 ft 277 kts 249°
2026-05-08 18:21 48.18660 16.86684 10491 ft 296 kts 249°
2026-05-08 18:21 48.17854 16.83717 10661 ft 318 kts 249°
2026-05-08 18:21 48.16998 16.80563 10937 ft 334 kts 249°
2026-05-08 18:22 48.16112 16.77299 11497 ft 341 kts 249°
2026-05-08 18:22 48.15214 16.73996 12185 ft 344 kts 249°
2026-05-08 18:22 48.14307 16.70660 12881 ft 348 kts 248°
2026-05-08 18:22 48.13390 16.67287 13568 ft 352 kts 248°
2026-05-08 18:23 48.12459 16.63870 14223 ft 356 kts 248°
2026-05-08 18:23 48.11521 16.60427 14917 ft 358 kts 248°
2026-05-08 18:23 48.10576 16.56968 15644 ft 360 kts 248°
2026-05-08 18:23 48.09625 16.53486 16317 ft 364 kts 248°
2026-05-08 18:24 48.08660 16.49961 16964 ft 368 kts 248°
2026-05-08 18:24 48.07688 16.46415 17656 ft 370 kts 248°
2026-05-08 18:24 48.06708 16.42847 18356 ft 372 kts 248°
2026-05-08 18:24 48.05720 16.39253 18932 ft 375 kts 248°
2026-05-08 18:25 48.04724 16.35635 19506 ft 378 kts 248°
2026-05-08 18:25 48.03718 16.31987 20070 ft 381 kts 248°
2026-05-08 18:25 48.02704 16.28315 20666 ft 383 kts 248°
2026-05-08 18:25 48.01682 16.24621 21223 ft 386 kts 248°
2026-05-08 18:26 48.00653 16.20909 21784 ft 388 kts 248°
2026-05-08 18:26 47.99618 16.17176 22320 ft 391 kts 248°
2026-05-08 18:26 47.98572 16.13412 22857 ft 394 kts 247°
2026-05-08 18:26 47.97520 16.09634 23388 ft 396 kts 247°
2026-05-08 18:27 47.96458 16.05827 23871 ft 398 kts 247°
2026-05-08 18:27 47.95753 16.03302 24163 ft 400 kts 247°
2026-05-08 18:27 47.94330 15.98210 24707 ft 403 kts 247°
2026-05-08 18:27 47.93246 15.94342 25145 ft 404 kts 247°
2026-05-08 18:28 47.92161 15.90476 25640 ft 405 kts 247°
2026-05-08 18:28 47.91073 15.86604 26082 ft 405 kts 247°
2026-05-08 18:28 47.89981 15.82725 26515 ft 407 kts 246°
2026-05-08 18:28 47.88883 15.78831 26912 ft 409 kts 246°
2026-05-08 18:29 47.87776 15.74910 27260 ft 412 kts 246°
2026-05-08 18:29 47.86662 15.70971 27676 ft 414 kts 246°
2026-05-08 18:29 47.85543 15.67024 28069 ft 415 kts 246°
2026-05-08 18:29 47.84416 15.63055 28457 ft 416 kts 246°
2026-05-08 18:30 47.83287 15.59080 28827 ft 418 kts 246°
2026-05-08 18:30 47.82151 15.55091 29209 ft 419 kts 246°
2026-05-08 18:30 47.81015 15.51109 29736 ft 417 kts 246°
2026-05-08 18:30 47.79888 15.47166 30326 ft 412 kts 246°
2026-05-08 18:31 47.78772 15.43264 30826 ft 408 kts 246°
2026-05-08 18:31 47.77662 15.39388 31265 ft 406 kts 246°
2026-05-08 18:31 47.76556 15.35533 31639 ft 405 kts 246°
2026-05-08 18:31 47.75452 15.31695 32076 ft 403 kts 245°
2026-05-08 18:32 47.74350 15.27870 32397 ft 403 kts 245°
2026-05-08 18:32 47.73244 15.24037 32701 ft 403 kts 245°
2026-05-08 18:32 47.72141 15.20217 33131 ft 401 kts 245°
2026-05-08 18:32 47.71048 15.16437 33610 ft 397 kts 245°
2026-05-08 18:33 47.69959 15.12680 33942 ft 395 kts 245°
2026-05-08 18:33 47.68874 15.08942 34238 ft 394 kts 245°
2026-05-08 18:33 47.67787 15.05198 34431 ft 396 kts 245°
2026-05-08 18:33 47.66693 15.01438 34616 ft 398 kts 245°
2026-05-08 18:34 47.65594 14.97674 34899 ft 397 kts 245°
2026-05-08 18:34 47.64499 14.93925 35151 ft 397 kts 245°
2026-05-08 18:34 47.63396 14.90156 35292 ft 399 kts 245°
2026-05-08 18:34 47.62287 14.86372 35471 ft 401 kts 245°
2026-05-08 18:35 47.61174 14.82579 35687 ft 402 kts 246°
2026-05-08 18:35 47.60058 14.78783 35911 ft 403 kts 246°
2026-05-08 18:35 47.58934 14.74962 36034 ft 406 kts 246°
2026-05-08 18:35 47.57818 14.71175 36072 ft 406 kts 246°
2026-05-08 18:36 47.55552 14.63502 36090 ft 407 kts 246°
2026-05-08 18:36 47.53278 14.55832 36080 ft 407 kts 245°
2026-05-08 18:37 47.51005 14.48182 36086 ft 406 kts 245°
2026-05-08 18:37 47.48728 14.40545 36075 ft 405 kts 245°
2026-05-08 18:38 47.46455 14.32944 36072 ft 404 kts 245°
2026-05-08 18:38 47.44180 14.25364 36079 ft 404 kts 245°
2026-05-08 18:39 47.41897 14.17780 36086 ft 404 kts 245°
2026-05-08 18:39 47.39605 14.10188 36074 ft 406 kts 245°
2026-05-08 18:40 47.37300 14.02576 36084 ft 407 kts 245°
2026-05-08 18:40 47.34979 13.94931 36082 ft 409 kts 245°
2026-05-08 18:41 47.32642 13.87259 36076 ft 411 kts 245°
2026-05-08 18:41 47.30296 13.79579 36072 ft 411 kts 245°
2026-05-08 18:42 47.27942 13.71896 36094 ft 411 kts 245°
2026-05-08 18:42 47.25553 13.64238 36078 ft 411 kts 244°
2026-05-08 18:43 47.23084 13.56646 36086 ft 411 kts 244°
2026-05-08 18:43 47.20602 13.49063 36063 ft 411 kts 244°
2026-05-08 18:44 47.18543 13.42766 36073 ft 411 kts 244°
2026-05-08 18:44 47.16071 13.35208 36073 ft 410 kts 244°
2026-05-08 18:45 47.13601 13.27668 36082 ft 410 kts 244°
2026-05-08 18:45 47.11131 13.20150 36089 ft 409 kts 244°
2026-05-08 18:46 47.08657 13.12644 36085 ft 409 kts 243°
2026-05-08 18:46 47.06180 13.05147 36082 ft 409 kts 243°
2026-05-08 18:47 47.03691 12.97640 36078 ft 410 kts 244°
2026-05-08 18:47 47.01190 12.90116 36083 ft 412 kts 243°
2026-05-08 18:48 46.98672 12.82565 36087 ft 413 kts 243°
2026-05-08 18:48 46.96167 12.75076 36086 ft 414 kts 244°
2026-05-08 18:49 46.93626 12.67496 36317 ft 415 kts 244°
2026-05-08 18:49 46.92354 12.63710 36611 ft 414 kts 244°
2026-05-08 18:49 46.91084 12.59935 36893 ft 413 kts 244°
2026-05-08 18:50 46.89817 12.56175 37081 ft 412 kts 244°
2026-05-08 18:50 46.88543 12.52399 37079 ft 417 kts 244°
2026-05-08 18:50 46.85961 12.44767 37086 ft 420 kts 244°
2026-05-08 18:51 46.83373 12.37130 37094 ft 420 kts 244°
2026-05-08 18:51 46.80545 12.29684 37103 ft 420 kts 234°
2026-05-08 18:52 46.76480 12.23566 37117 ft 422 kts 220°
2026-05-08 18:52 46.71837 12.18321 37035 ft 422 kts 220°
2026-05-08 18:53 46.67186 12.13090 37027 ft 422 kts 220°
2026-05-08 18:53 46.62557 12.07852 37037 ft 422 kts 220°
2026-05-08 18:54 46.57937 12.02612 37049 ft 421 kts 220°
2026-05-08 18:54 46.53307 11.97362 37047 ft 423 kts 221°
2026-05-08 18:55 46.46334 11.89479 37047 ft 424 kts 221°
2026-05-08 18:56 46.41681 11.84234 37028 ft 423 kts 221°
2026-05-08 18:56 46.37034 11.79003 37050 ft 423 kts 220°
2026-05-08 18:57 46.32403 11.73816 37048 ft 424 kts 221°
2026-05-08 18:57 46.27735 11.68587 37044 ft 425 kts 221°
2026-05-08 18:58 46.23059 11.63358 37049 ft 426 kts 221°
2026-05-08 18:58 46.18366 11.58127 37046 ft 426 kts 221°
2026-05-08 18:59 46.13664 11.52895 37057 ft 427 kts 221°
2026-05-08 18:59 46.08954 11.47668 37040 ft 428 kts 221°
2026-05-08 19:00 46.04243 11.42451 37054 ft 426 kts 221°
2026-05-08 19:00 45.99537 11.37253 37024 ft 426 kts 221°
2026-05-08 19:01 45.94841 11.32074 37045 ft 425 kts 221°
2026-05-08 19:01 45.90152 11.26914 37049 ft 424 kts 221°
2026-05-08 19:02 45.85472 11.21780 37045 ft 423 kts 221°
2026-05-08 19:02 45.80802 11.16665 37048 ft 421 kts 221°
2026-05-08 19:03 45.76147 11.11576 37048 ft 421 kts 221°
2026-05-08 19:03 45.71500 11.06507 37030 ft 419 kts 221°
2026-05-08 19:04 45.66873 11.01471 37047 ft 418 kts 221°
2026-05-08 19:04 45.62244 10.96441 37045 ft 418 kts 221°
2026-05-08 19:05 45.57607 10.91416 37057 ft 419 kts 221°
2026-05-08 19:05 45.52981 10.86413 37046 ft 421 kts 221°
2026-05-08 19:06 45.48304 10.81365 37052 ft 422 kts 221°
2026-05-08 19:06 45.43616 10.76318 37043 ft 423 kts 221°
2026-05-08 19:07 45.38923 10.71277 37053 ft 423 kts 221°
2026-05-08 19:07 45.34221 10.66235 37044 ft 423 kts 221°
2026-05-08 19:08 45.29516 10.61202 37044 ft 423 kts 221°
2026-05-08 19:08 45.24822 10.56191 37042 ft 422 kts 221°
2026-05-08 19:09 45.20137 10.51199 37040 ft 421 kts 221°
2026-05-08 19:09 45.15461 10.46228 37044 ft 420 kts 221°
2026-05-08 19:10 45.10797 10.41279 37046 ft 419 kts 221°
2026-05-08 19:10 45.06140 10.36349 37041 ft 417 kts 221°
2026-05-08 19:11 45.01493 10.31439 37052 ft 416 kts 221°
2026-05-08 19:11 44.96852 10.26546 37048 ft 416 kts 221°
2026-05-08 19:12 44.92213 10.21665 37032 ft 416 kts 221°
2026-05-08 19:12 44.87577 10.16796 37054 ft 415 kts 221°
2026-05-08 19:13 44.82941 10.11938 37052 ft 416 kts 221°
2026-05-08 19:13 44.78294 10.07078 37057 ft 416 kts 221°
2026-05-08 19:14 44.73645 10.02226 37044 ft 416 kts 220°
2026-05-08 19:14 44.69020 9.97409 37049 ft 417 kts 221°
2026-05-08 19:15 44.64359 9.92565 37053 ft 416 kts 220°
2026-05-08 19:15 44.59702 9.87734 37060 ft 417 kts 220°
2026-05-08 19:16 44.55040 9.82909 37052 ft 416 kts 220°
2026-05-08 19:16 44.50380 9.78094 37052 ft 417 kts 220°
2026-05-08 19:17 44.45713 9.73282 37064 ft 417 kts 220°
2026-05-08 19:17 44.41035 9.68468 37057 ft 418 kts 220°
2026-05-08 19:18 44.36350 9.63656 37058 ft 418 kts 220°
2026-05-08 19:18 44.31651 9.58844 37051 ft 419 kts 219°
2026-05-08 19:19 44.26836 9.54240 37047 ft 420 kts 218°
2026-05-08 19:19 44.21970 9.49735 37036 ft 420 kts 218°
2026-05-08 19:20 44.17935 9.45986 37046 ft 419 kts 218°
2026-05-08 19:20 44.12283 9.40707 37037 ft 418 kts 218°
2026-05-08 19:21 44.07461 9.36201 37038 ft 417 kts 218°
2026-05-08 19:21 44.02643 9.31708 37022 ft 416 kts 218°
2026-05-08 19:22 43.97869 9.27263 37040 ft 416 kts 218°
2026-05-08 19:22 43.93056 9.22792 37056 ft 419 kts 218°
2026-05-08 19:23 43.88156 9.18246 37052 ft 428 kts 217°
2026-05-08 19:23 43.83165 9.13627 37045 ft 434 kts 217°
2026-05-08 19:24 43.78133 9.08984 37045 ft 435 kts 217°
2026-05-08 19:24 43.73096 9.04343 37037 ft 435 kts 217°
2026-05-08 19:25 43.68058 8.99712 37037 ft 434 kts 216°
2026-05-08 19:25 43.65391 8.97735 37034 ft 438 kts 205°
2026-05-08 19:25 43.62475 8.96430 37044 ft 442 kts 197°
2026-05-08 19:26 43.56305 8.95643 37059 ft 450 kts 184°
2026-05-08 19:26 43.50047 8.95765 37043 ft 450 kts 184°
2026-05-08 19:27 43.43791 8.95809 37037 ft 449 kts 184°
2026-05-08 19:27 43.37553 8.95726 37039 ft 447 kts 188°
2026-05-08 19:28 43.31370 8.95038 37046 ft 445 kts 189°
2026-05-08 19:28 43.25200 8.94252 37036 ft 445 kts 189°
2026-05-08 19:29 43.19025 8.93503 37049 ft 445 kts 189°
2026-05-08 19:29 43.12855 8.92785 37050 ft 445 kts 189°
2026-05-08 19:30 43.06678 8.92073 37043 ft 445 kts 189°
2026-05-08 19:30 43.00511 8.91363 37050 ft 445 kts 189°
2026-05-08 19:31 42.94343 8.90654 37047 ft 445 kts 189°
2026-05-08 19:31 42.88221 8.89951 37028 ft 444 kts 189°
2026-05-08 19:32 42.82063 8.89245 37044 ft 444 kts 189°
2026-05-08 19:32 42.75909 8.88543 37048 ft 444 kts 189°
2026-05-08 19:33 42.69758 8.87846 37046 ft 444 kts 189°
2026-05-08 19:33 42.63608 8.87151 37047 ft 443 kts 189°
2026-05-08 19:34 42.58500 8.86574 37051 ft 443 kts 189°
2026-05-08 19:34 42.52346 8.85880 37050 ft 444 kts 189°
2026-05-08 19:35 42.46189 8.85186 37057 ft 444 kts 189°
2026-05-08 19:35 42.40025 8.84486 37031 ft 445 kts 189°
2026-05-08 19:36 42.33864 8.83795 37059 ft 445 kts 189°
2026-05-08 19:36 42.27683 8.83109 37047 ft 445 kts 189°
2026-05-08 19:37 42.21502 8.82420 36608 ft 449 kts 189°
2026-05-08 19:37 42.18399 8.82074 36108 ft 446 kts 189°
2026-05-08 19:37 42.15313 8.81731 35484 ft 445 kts 188°
2026-05-08 19:37 42.12227 8.81354 34837 ft 446 kts 189°
2026-05-08 19:38 42.09128 8.80989 34164 ft 448 kts 188°
2026-05-08 19:38 42.06019 8.80657 33394 ft 449 kts 188°
2026-05-08 19:38 42.02895 8.80329 32639 ft 450 kts 188°
2026-05-08 19:38 41.99771 8.79995 31902 ft 451 kts 188°
2026-05-08 19:39 41.96645 8.79655 31156 ft 452 kts 188°
2026-05-08 19:39 41.93506 8.79311 30392 ft 453 kts 188°
2026-05-08 19:39 41.90356 8.78963 29505 ft 455 kts 188°
2026-05-08 19:39 41.87194 8.78613 28594 ft 457 kts 188°
2026-05-08 19:40 41.84042 8.78266 28032 ft 450 kts 188°
2026-05-08 19:40 41.80934 8.77924 27408 ft 446 kts 188°
2026-05-08 19:40 41.77855 8.77586 26823 ft 442 kts 189°
2026-05-08 19:40 41.74806 8.77162 26034 ft 441 kts 191°
2026-05-08 19:41 41.71767 8.76597 25375 ft 439 kts 193°
2026-05-08 19:41 41.68758 8.75986 24770 ft 436 kts 193°
2026-05-08 19:41 41.65773 8.75373 24182 ft 433 kts 193°
2026-05-08 19:41 41.62848 8.74781 23601 ft 430 kts 193°
2026-05-08 19:42 41.59900 8.74198 22950 ft 426 kts 193°
2026-05-08 19:42 41.56984 8.73632 22350 ft 422 kts 193°
2026-05-08 19:42 41.54086 8.73075 21769 ft 418 kts 193°
2026-05-08 19:42 41.51226 8.72528 21216 ft 413 kts 193°
2026-05-08 19:43 41.48393 8.71986 20668 ft 409 kts 193°
2026-05-08 19:43 41.45588 8.71450 20123 ft 405 kts 193°
2026-05-08 19:43 41.42812 8.70918 19577 ft 401 kts 193°
2026-05-08 19:43 41.40062 8.70392 19049 ft 397 kts 193°
2026-05-08 19:44 41.37339 8.69872 18525 ft 394 kts 193°
2026-05-08 19:44 41.34637 8.69357 17953 ft 390 kts 193°
2026-05-08 19:44 41.32025 8.68546 17372 ft 380 kts 205°
2026-05-08 19:44 41.29633 8.67153 16872 ft 373 kts 208°
2026-05-08 19:45 41.27284 8.65710 16338 ft 370 kts 208°
2026-05-08 19:45 41.24952 8.64292 15820 ft 367 kts 208°
2026-05-08 19:45 41.22626 8.62906 15302 ft 365 kts 207°
2026-05-08 19:45 41.20309 8.61549 14797 ft 363 kts 207°
2026-05-08 19:46 41.18006 8.60211 14295 ft 361 kts 207°
2026-05-08 19:46 41.15710 8.58882 13785 ft 359 kts 207°
2026-05-08 19:46 41.11131 8.56239 12611 ft 358 kts 206°
2026-05-08 19:47 41.08856 8.54928 12094 ft 356 kts 206°
2026-05-08 19:47 41.06593 8.53626 11587 ft 353 kts 205°
2026-05-08 19:47 41.04344 8.52332 11096 ft 352 kts 205°
2026-05-08 19:47 41.02125 8.51058 10893 ft 341 kts 205°
2026-05-08 19:48 40.99984 8.49830 10725 ft 330 kts 205°
2026-05-08 19:48 40.97911 8.48641 10578 ft 320 kts 205°
2026-05-08 19:48 40.95898 8.47487 10443 ft 309 kts 205°
2026-05-08 19:48 40.93978 8.46387 10291 ft 293 kts 205°
2026-05-08 19:49 40.92159 8.45346 10171 ft 277 kts 205°
2026-05-08 19:49 40.90449 8.44367 10061 ft 267 kts 205°
2026-05-08 19:49 40.88750 8.43393 9814 ft 266 kts 205°
2026-05-08 19:49 40.87032 8.42409 9556 ft 274 kts 204°
2026-05-08 19:50 40.85243 8.41384 9272 ft 284 kts 204°
2026-05-08 19:50 40.83436 8.40351 8962 ft 280 kts 204°
2026-05-08 19:50 40.81673 8.39345 8651 ft 272 kts 205°
2026-05-08 19:50 40.79961 8.38368 8367 ft 264 kts 204°
2026-05-08 19:51 40.78295 8.37418 8097 ft 259 kts 204°
2026-05-08 19:51 40.76645 8.36477 7838 ft 258 kts 204°
2026-05-08 19:51 40.74988 8.35532 7508 ft 262 kts 204°
2026-05-08 19:51 40.73302 8.34571 7408 ft 268 kts 204°
2026-05-08 19:52 40.71571 8.33585 7296 ft 270 kts 204°
2026-05-08 19:52 40.69888 8.32627 7154 ft 258 kts 203°
2026-05-08 19:52 40.68264 8.31705 7050 ft 251 kts 203°
2026-05-08 19:52 40.66687 8.30809 6950 ft 243 kts 203°
2026-05-08 19:53 40.65157 8.29940 6856 ft 236 kts 203°
2026-05-08 19:53 40.63655 8.29148 6703 ft 231 kts 193°
2026-05-08 19:53 40.62073 8.29183 6488 ft 228 kts 171°
2026-05-08 19:53 40.60510 8.29118 6214 ft 227 kts 202°
2026-05-08 19:54 40.59363 8.27796 6020 ft 221 kts 243°
2026-05-08 19:54 40.59185 8.25875 5912 ft 210 kts 283°
2026-05-08 19:54 40.59495 8.24098 5897 ft 191 kts 265°
2026-05-08 19:54 40.58962 8.22631 5858 ft 177 kts 213°
2026-05-08 19:55 40.57801 8.22293 5913 ft 178 kts 167°
2026-05-08 19:55 40.56727 8.22981 5870 ft 167 kts 142°
2026-05-08 19:55 40.55965 8.24079 5516 ft 165 kts 125°
2026-05-08 19:55 40.55286 8.25273 5160 ft 162 kts 135°
2026-05-08 19:56 40.54328 8.25914 4846 ft 153 kts 178°
2026-05-08 19:56 40.53341 8.25455 4331 ft 161 kts 221°
2026-05-08 19:56 40.52880 8.24145 3849 ft 164 kts 268°
2026-05-08 19:56 40.53387 8.22838 3321 ft 166 kts 324°
2026-05-08 19:57 40.54475 8.22542 2696 ft 163 kts 25°
2026-05-08 19:57 40.55294 8.23495 2198 ft 159 kts 53°
2026-05-08 19:57 40.56020 8.24512 1880 ft 151 kts 39°
2026-05-08 19:57 40.56925 8.25288 1357 ft 157 kts 26°
2026-05-08 19:58 40.57880 8.25857 1020 ft 150 kts 30°
2026-05-08 19:58 40.58775 8.26427 763 ft 139 kts 23°
2026-05-08 19:58 40.59659 8.26948 577 ft 140 kts 26°
2026-05-08 19:58 40.60560 8.27481 390 ft 145 kts 23°
2026-05-08 19:59 40.61473 8.28039 251 ft 142 kts 24°
2026-05-08 19:59 40.62385 8.28577 92 ft 139 kts 25°
2026-05-08 19:59 40.63140 8.29033 98 ft 88 kts 24°
2026-05-08 19:59 40.63481 8.29240 95 ft 39 kts 25°
2026-05-08 20:00 40.63671 8.29358 95 ft 35 kts 35°
2026-05-08 20:00 40.63798 8.29524 98 ft 31 kts 51°
2026-05-08 20:00 40.63762 8.29638 100 ft 15 kts 206°
2026-05-08 20:01 40.63664 8.29585 97 ft 16 kts 200°
2026-05-08 20:01 40.63577 8.29557 97 ft 0 kts 183°